AAL2710 KCLT-KRSW

Flight info

Callsign AAL2710
Flight time N/A
Altitude 36000
Route ICONS5 NOOKS DCT RIELE Q103 CYNTA SHFTY6
Aircraft A321/M-SDE3FGHIRWY/LB1

Departure

Time 2026-05-05 02:56
Airport Charlotte Douglas International Airport (KCLT)

Arrival

Time N/A
Airport Southwest Florida International Airport (KRSW)
Time Latitude Longitude Altitude Speed Heading
2026-05-05 02:29 35.21980 -80.94883 733 ft 0 kts 60°
2026-05-05 02:45 35.21979 -80.94886 733 ft 3 kts 60°
2026-05-05 02:46 35.21967 -80.94915 733 ft 4 kts 69°
2026-05-05 02:46 35.21960 -80.94941 731 ft 4 kts 92°
2026-05-05 02:46 35.21969 -80.94964 733 ft 4 kts 159°
2026-05-05 02:46 35.21994 -80.94970 732 ft 3 kts 177°
2026-05-05 02:47 35.22020 -80.94972 732 ft 2 kts 176°
2026-05-05 02:47 35.22023 -80.94972 732 ft 0 kts 176°
2026-05-05 02:50 35.22011 -80.94971 733 ft 6 kts 176°
2026-05-05 02:50 35.21932 -80.94964 733 ft 14 kts 176°
2026-05-05 02:50 35.21831 -80.94956 733 ft 15 kts 176°
2026-05-05 02:50 35.21726 -80.94944 733 ft 15 kts 174°
2026-05-05 02:51 35.21620 -80.94919 733 ft 15 kts 142°
2026-05-05 02:51 35.21612 -80.94793 732 ft 16 kts 84°
2026-05-05 02:51 35.21615 -80.94657 732 ft 16 kts 104°
2026-05-05 02:51 35.21548 -80.94548 732 ft 16 kts 136°
2026-05-05 02:52 35.21469 -80.94447 731 ft 16 kts 115°
2026-05-05 02:52 35.21518 -80.94331 732 ft 16 kts 44°
2026-05-05 02:52 35.21598 -80.94229 732 ft 17 kts 47°
2026-05-05 02:52 35.21678 -80.94121 732 ft 17 kts 48°
2026-05-05 02:53 35.21760 -80.94007 732 ft 18 kts 49°
2026-05-05 02:53 35.21845 -80.93889 732 ft 19 kts 48°
2026-05-05 02:53 35.21934 -80.93770 732 ft 19 kts 47°
2026-05-05 02:53 35.22047 -80.93714 733 ft 19 kts 354°
2026-05-05 02:54 35.22177 -80.93728 733 ft 19 kts 356°
2026-05-05 02:54 35.22310 -80.93740 733 ft 20 kts 355°
2026-05-05 02:54 35.22447 -80.93754 733 ft 20 kts 355°
2026-05-05 02:54 35.22508 -80.93682 735 ft 13 kts 89°
2026-05-05 02:55 35.22461 -80.93617 736 ft 11 kts 176°
2026-05-05 02:55 35.22433 -80.93615 736 ft 0 kts 176°
2026-05-05 02:55 35.22365 -80.93609 736 ft 39 kts 176°
2026-05-05 02:56 35.21845 -80.93567 736 ft 108 kts 176°
2026-05-05 02:56 35.20899 -80.93486 737 ft 162 kts 176°
2026-05-05 02:56 35.19723 -80.93393 1208 ft 169 kts 177°
2026-05-05 02:56 35.18565 -80.93300 2008 ft 166 kts 182°
2026-05-05 02:57 35.17411 -80.93214 2603 ft 173 kts 182°
2026-05-05 02:57 35.16131 -80.93136 2936 ft 189 kts 181°
2026-05-05 02:57 35.14797 -80.93068 3337 ft 199 kts 182°
2026-05-05 02:57 35.13385 -80.93005 3770 ft 206 kts 182°
2026-05-05 02:58 35.11886 -80.92949 4128 ft 221 kts 182°
2026-05-05 02:58 35.10280 -80.92887 4412 ft 243 kts 181°
2026-05-05 02:58 35.08534 -80.92897 4931 ft 254 kts 186°
2026-05-05 02:58 35.06761 -80.93117 5647 ft 258 kts 189°
2026-05-05 02:59 35.04962 -80.93380 6381 ft 263 kts 189°
2026-05-05 02:59 35.03136 -80.93659 7078 ft 266 kts 189°
2026-05-05 02:59 35.01275 -80.93932 7746 ft 272 kts 189°
2026-05-05 02:59 34.99383 -80.94182 8473 ft 275 kts 188°
2026-05-05 03:00 34.97492 -80.94422 9195 ft 278 kts 188°
2026-05-05 03:00 34.95557 -80.94665 9930 ft 281 kts 188°
2026-05-05 03:00 34.93564 -80.94916 10296 ft 298 kts 188°
2026-05-05 03:00 34.91422 -80.95189 10448 ft 321 kts 188°
2026-05-05 03:01 34.89153 -80.95476 10836 ft 332 kts 188°
2026-05-05 03:01 34.86832 -80.95772 11436 ft 338 kts 188°
2026-05-05 03:01 34.84484 -80.96075 12093 ft 342 kts 188°
2026-05-05 03:01 34.82100 -80.96383 12722 ft 346 kts 188°
2026-05-05 03:02 34.79687 -80.96690 13342 ft 351 kts 187°
2026-05-05 03:02 34.77242 -80.96901 13942 ft 356 kts 185°
2026-05-05 03:02 34.74748 -80.97004 14510 ft 360 kts 183°
2026-05-05 03:02 34.72233 -80.97049 15099 ft 363 kts 183°
2026-05-05 03:03 34.69699 -80.97079 15692 ft 366 kts 183°
2026-05-05 03:03 34.67146 -80.97116 16292 ft 369 kts 184°
2026-05-05 03:03 34.64570 -80.97169 16881 ft 371 kts 184°
2026-05-05 03:03 34.61980 -80.97242 17473 ft 374 kts 185°
2026-05-05 03:04 34.59374 -80.97399 18067 ft 376 kts 187°
2026-05-05 03:04 34.56753 -80.97640 18600 ft 379 kts 188°
2026-05-05 03:04 34.54124 -80.97922 19107 ft 381 kts 188°
2026-05-05 03:04 34.51475 -80.98213 19619 ft 384 kts 188°
2026-05-05 03:05 34.48801 -80.98500 20129 ft 387 kts 188°
2026-05-05 03:05 34.46112 -80.98774 20635 ft 390 kts 188°
2026-05-05 03:05 34.43398 -80.99038 21167 ft 393 kts 188°
2026-05-05 03:05 34.40664 -80.99295 21684 ft 395 kts 188°
2026-05-05 03:06 34.37912 -80.99545 22186 ft 398 kts 187°
2026-05-05 03:06 34.35138 -80.99795 22684 ft 401 kts 187°
2026-05-05 03:06 34.32932 -80.99993 23066 ft 403 kts 187°
2026-05-05 03:06 34.30126 -81.00249 23533 ft 406 kts 188°
2026-05-05 03:07 34.27295 -81.00509 23931 ft 409 kts 188°
2026-05-05 03:07 34.24450 -81.00774 24318 ft 412 kts 188°
2026-05-05 03:07 34.21585 -81.01047 24706 ft 414 kts 188°
2026-05-05 03:07 34.18708 -81.01322 25089 ft 416 kts 188°
2026-05-05 03:08 34.15816 -81.01595 25467 ft 418 kts 188°
2026-05-05 03:08 34.12905 -81.01866 25849 ft 420 kts 188°
2026-05-05 03:08 34.09987 -81.02138 26234 ft 422 kts 188°
2026-05-05 03:08 34.07050 -81.02413 26614 ft 424 kts 188°
2026-05-05 03:09 34.04103 -81.02687 26981 ft 426 kts 188°
2026-05-05 03:09 34.01138 -81.02964 27317 ft 428 kts 188°
2026-05-05 03:09 33.98168 -81.03297 27680 ft 429 kts 193°
2026-05-05 03:09 33.95248 -81.04019 28022 ft 429 kts 196°
2026-05-05 03:10 33.92332 -81.04805 28354 ft 431 kts 197°
2026-05-05 03:10 33.89403 -81.05595 28688 ft 433 kts 196°
2026-05-05 03:10 33.86456 -81.06388 29015 ft 435 kts 196°
2026-05-05 03:10 33.83499 -81.07186 29346 ft 437 kts 196°
2026-05-05 03:11 33.80529 -81.07988 29662 ft 439 kts 196°
2026-05-05 03:11 33.77543 -81.08794 29975 ft 441 kts 196°
2026-05-05 03:11 33.74544 -81.09603 30273 ft 443 kts 196°
2026-05-05 03:11 33.71532 -81.10413 30560 ft 445 kts 196°
2026-05-05 03:12 33.68507 -81.11224 30851 ft 446 kts 196°
2026-05-05 03:12 33.65475 -81.12035 31160 ft 447 kts 196°
2026-05-05 03:12 33.62445 -81.12841 31549 ft 445 kts 197°
2026-05-05 03:12 33.59424 -81.13645 31921 ft 444 kts 197°
2026-05-05 03:13 33.56409 -81.14451 32304 ft 443 kts 197°
2026-05-05 03:13 33.53410 -81.15255 32691 ft 442 kts 197°
2026-05-05 03:13 33.50404 -81.16061 33073 ft 441 kts 197°
2026-05-05 03:13 33.47415 -81.16861 33455 ft 440 kts 197°
2026-05-05 03:14 33.45437 -81.17390 33708 ft 439 kts 197°
2026-05-05 03:14 33.42455 -81.18186 34078 ft 438 kts 197°
2026-05-05 03:14 33.39480 -81.18978 34394 ft 438 kts 198°
2026-05-05 03:14 33.36507 -81.19768 34643 ft 438 kts 198°
2026-05-05 03:15 33.33529 -81.20559 34867 ft 439 kts 198°
2026-05-05 03:15 33.30542 -81.21354 35104 ft 440 kts 198°
2026-05-05 03:15 33.27556 -81.22147 35194 ft 438 kts 193°
2026-05-05 03:15 33.24586 -81.22931 35403 ft 438 kts 198°
2026-05-05 03:16 33.21600 -81.23721 35553 ft 440 kts 198°
2026-05-05 03:16 33.18607 -81.24514 35773 ft 442 kts 198°
2026-05-05 03:16 33.15604 -81.25307 36006 ft 443 kts 198°
2026-05-05 03:17 33.09578 -81.26901 36110 ft 444 kts 198°
2026-05-05 03:17 33.03546 -81.28497 36116 ft 444 kts 199°
2026-05-05 03:18 32.97493 -81.30093 36117 ft 447 kts 199°
2026-05-05 03:18 32.91420 -81.31691 36115 ft 447 kts 199°
2026-05-05 03:19 32.82294 -81.34093 36110 ft 449 kts 199°
2026-05-05 03:19 32.76193 -81.35705 36105 ft 449 kts 199°
2026-05-05 03:20 32.70082 -81.37306 36101 ft 450 kts 199°
2026-05-05 03:20 32.63970 -81.38901 36099 ft 450 kts 199°
2026-05-05 03:21 32.57922 -81.40702 36072 ft 446 kts 204°
2026-05-05 03:21 32.51990 -81.42883 36100 ft 446 kts 205°
2026-05-05 03:22 32.46073 -81.45103 36100 ft 447 kts 205°
2026-05-05 03:22 32.40127 -81.47239 36101 ft 447 kts 204°
2026-05-05 03:23 32.34187 -81.49312 36104 ft 447 kts 204°
2026-05-05 03:23 32.28214 -81.51399 36106 ft 448 kts 205°
2026-05-05 03:24 32.22196 -81.53515 36112 ft 448 kts 205°
2026-05-05 03:24 32.16260 -81.55606 36103 ft 447 kts 205°
2026-05-05 03:25 32.10337 -81.57684 36107 ft 443 kts 205°
2026-05-05 03:25 32.04436 -81.59759 36105 ft 443 kts 205°
2026-05-05 03:26 31.98526 -81.61833 36107 ft 443 kts 205°
2026-05-05 03:26 31.92612 -81.63898 36105 ft 443 kts 205°
2026-05-05 03:27 31.86696 -81.65962 36096 ft 444 kts 206°
2026-05-05 03:27 31.80771 -81.68034 36087 ft 445 kts 206°
2026-05-05 03:28 31.74810 -81.70115 36095 ft 450 kts 206°
2026-05-05 03:28 31.68798 -81.72203 36109 ft 451 kts 206°
2026-05-05 03:29 31.62783 -81.74295 36154 ft 451 kts 206°
2026-05-05 03:29 31.56766 -81.76377 36161 ft 451 kts 206°
2026-05-05 03:30 31.50754 -81.78460 36126 ft 450 kts 206°
2026-05-05 03:30 31.44742 -81.80540 36132 ft 451 kts 206°
2026-05-05 03:31 31.38719 -81.82621 36133 ft 451 kts 206°
2026-05-05 03:31 31.32697 -81.84701 36128 ft 452 kts 206°
2026-05-05 03:32 31.26706 -81.86766 36122 ft 452 kts 206°
2026-05-05 03:32 31.20678 -81.88849 36077 ft 452 kts 206°
2026-05-05 03:33 31.14640 -81.90925 36087 ft 452 kts 206°
2026-05-05 03:33 31.08559 -81.93009 36093 ft 452 kts 206°
2026-05-05 03:34 31.02515 -81.95073 36099 ft 453 kts 206°
2026-05-05 03:34 30.96509 -81.97127 36067 ft 453 kts 206°
2026-05-05 03:35 30.90463 -81.99196 36073 ft 453 kts 206°
2026-05-05 03:35 30.84413 -82.01263 36082 ft 453 kts 206°
2026-05-05 03:36 30.78358 -82.03324 36090 ft 453 kts 206°
2026-05-05 03:36 30.72303 -82.05386 36094 ft 453 kts 206°
2026-05-05 03:37 30.66243 -82.07450 36060 ft 454 kts 206°
2026-05-05 03:37 30.60106 -82.09327 36076 ft 464 kts 198°
2026-05-05 03:38 30.53597 -82.10002 36091 ft 471 kts 193°
2026-05-05 03:38 30.47056 -82.10597 36110 ft 472 kts 194°
2026-05-05 03:39 30.40507 -82.11204 36126 ft 472 kts 194°
2026-05-05 03:39 30.33959 -82.11818 36131 ft 472 kts 194°
2026-05-05 03:40 30.27406 -82.12428 36129 ft 472 kts 194°
2026-05-05 03:40 30.20855 -82.13026 36128 ft 474 kts 191°
2026-05-05 03:41 30.14163 -82.12353 36078 ft 490 kts 178°
2026-05-05 03:41 30.07441 -82.10973 36089 ft 491 kts 178°
2026-05-05 03:42 30.00718 -82.09612 36100 ft 491 kts 178°
2026-05-05 03:42 29.93986 -82.08268 36112 ft 491 kts 178°
2026-05-05 03:43 29.87251 -82.06925 36079 ft 491 kts 178°
2026-05-05 03:43 29.80507 -82.05567 36094 ft 493 kts 178°
2026-05-05 03:44 29.73741 -82.04204 36110 ft 494 kts 178°
2026-05-05 03:44 29.66965 -82.02847 36123 ft 495 kts 178°
2026-05-05 03:45 29.60179 -82.01496 36131 ft 495 kts 178°
2026-05-05 03:45 29.53391 -82.00142 36081 ft 495 kts 179°
2026-05-05 03:46 29.46589 -81.98779 36089 ft 497 kts 179°
2026-05-05 03:46 29.39771 -81.97414 36100 ft 498 kts 179°
2026-05-05 03:47 29.32943 -81.96063 36111 ft 498 kts 179°
2026-05-05 03:47 29.26119 -81.94717 36084 ft 498 kts 179°
2026-05-05 03:48 29.19271 -81.93363 36097 ft 499 kts 179°
2026-05-05 03:48 29.12422 -81.92008 36111 ft 500 kts 179°
2026-05-05 03:49 29.05567 -81.90657 36115 ft 500 kts 179°
2026-05-05 03:49 28.98751 -81.89320 36074 ft 501 kts 179°
2026-05-05 03:50 28.95313 -81.88645 35838 ft 502 kts 179°
2026-05-05 03:50 28.91835 -81.87965 34929 ft 512 kts 179°
2026-05-05 03:50 28.88300 -81.87279 34111 ft 519 kts 178°
2026-05-05 03:50 28.84733 -81.86584 33400 ft 520 kts 178°
2026-05-05 03:51 28.81187 -81.85879 33084 ft 513 kts 178°
2026-05-05 03:51 28.77689 -81.85177 32629 ft 509 kts 178°
2026-05-05 03:51 28.74218 -81.84481 32190 ft 504 kts 178°
2026-05-05 03:51 28.70790 -81.83793 31728 ft 498 kts 178°
2026-05-05 03:52 28.67387 -81.83114 31279 ft 493 kts 178°
2026-05-05 03:52 28.64025 -81.82444 30849 ft 489 kts 178°
2026-05-05 03:52 28.60692 -81.81783 30419 ft 483 kts 178°
2026-05-05 03:52 28.57397 -81.81131 29978 ft 478 kts 178°
2026-05-05 03:53 28.54137 -81.80460 29489 ft 475 kts 176°
2026-05-05 03:53 28.50920 -81.79665 29005 ft 472 kts 174°
2026-05-05 03:53 28.47748 -81.78764 28530 ft 468 kts 172°
2026-05-05 03:53 28.44614 -81.77808 28074 ft 464 kts 172°
2026-05-05 03:54 28.41517 -81.76843 27626 ft 459 kts 171°
2026-05-05 03:54 28.38484 -81.75884 27433 ft 447 kts 172°
2026-05-05 03:54 28.35476 -81.74969 27216 ft 437 kts 172°
2026-05-05 03:54 28.32559 -81.74127 26970 ft 429 kts 173°
2026-05-05 03:55 28.29680 -81.73324 26720 ft 423 kts 173°
2026-05-05 03:55 28.26871 -81.72551 26474 ft 419 kts 173°
2026-05-05 03:55 28.24007 -81.71764 26232 ft 416 kts 173°
2026-05-05 03:55 28.21206 -81.70985 25991 ft 414 kts 173°
2026-05-05 03:56 28.18455 -81.70210 25760 ft 411 kts 173°
2026-05-05 03:56 28.15688 -81.69426 25523 ft 409 kts 173°
2026-05-05 03:56 28.12940 -81.68644 25292 ft 406 kts 173°
2026-05-05 03:56 28.10208 -81.67872 25046 ft 404 kts 173°
2026-05-05 03:57 28.07476 -81.67234 24816 ft 395 kts 181°
2026-05-05 03:57 28.04771 -81.67127 24591 ft 383 kts 192°
2026-05-05 03:57 28.02188 -81.67531 24329 ft 369 kts 201°
2026-05-05 03:57 27.99720 -81.68235 23958 ft 364 kts 202°
2026-05-05 03:58 27.97274 -81.68941 23547 ft 362 kts 201°
2026-05-05 03:58 27.94842 -81.69642 23120 ft 359 kts 201°
2026-05-05 03:58 27.92438 -81.70332 22740 ft 355 kts 201°
2026-05-05 03:58 27.90060 -81.71016 22352 ft 351 kts 201°
2026-05-05 03:59 27.87703 -81.71696 21970 ft 348 kts 201°
2026-05-05 03:59 27.85372 -81.72367 21580 ft 344 kts 201°
2026-05-05 03:59 27.83838 -81.72808 21323 ft 342 kts 201°
2026-05-05 03:59 27.81541 -81.73468 20923 ft 339 kts 201°
2026-05-05 04:00 27.79266 -81.74122 20558 ft 336 kts 201°
2026-05-05 04:00 27.77007 -81.74771 20180 ft 334 kts 200°
2026-05-05 04:00 27.74762 -81.75417 19800 ft 332 kts 200°
2026-05-05 04:00 27.72530 -81.76057 19419 ft 330 kts 200°
2026-05-05 04:01 27.70265 -81.76524 19042 ft 334 kts 189°
2026-05-05 04:01 27.67925 -81.76523 18870 ft 342 kts 184°
2026-05-05 04:01 27.65531 -81.76462 18677 ft 346 kts 184°
2026-05-05 04:01 27.63119 -81.76405 18482 ft 347 kts 184°
2026-05-05 04:02 27.60709 -81.76312 18215 ft 347 kts 179°
2026-05-05 04:02 27.58326 -81.75771 18005 ft 352 kts 166°
2026-05-05 04:02 27.56051 -81.74729 17817 ft 354 kts 160°
2026-05-05 04:02 27.53791 -81.73624 17615 ft 353 kts 161°
2026-05-05 04:03 27.51542 -81.72536 17425 ft 352 kts 161°
2026-05-05 04:03 27.49293 -81.71455 17223 ft 350 kts 161°
2026-05-05 04:03 27.47055 -81.70384 17027 ft 349 kts 161°
2026-05-05 04:03 27.44826 -81.69316 16832 ft 348 kts 160°
2026-05-05 04:04 27.42606 -81.68248 16634 ft 346 kts 160°
2026-05-05 04:04 27.40394 -81.67183 16444 ft 345 kts 160°
2026-05-05 04:04 27.38190 -81.66120 16246 ft 344 kts 160°
2026-05-05 04:04 27.35997 -81.65060 16060 ft 342 kts 160°
2026-05-05 04:05 27.33812 -81.64004 15771 ft 341 kts 160°
2026-05-05 04:05 27.31647 -81.62959 15454 ft 338 kts 160°
2026-05-05 04:05 27.29496 -81.61920 15141 ft 335 kts 160°
2026-05-05 04:05 27.27357 -81.60890 14834 ft 333 kts 160°
2026-05-05 04:06 27.25234 -81.59871 14531 ft 331 kts 160°
2026-05-05 04:06 27.23121 -81.58857 14229 ft 329 kts 160°
2026-05-05 04:06 27.21020 -81.57848 13913 ft 328 kts 160°
2026-05-05 04:06 27.18925 -81.56843 13581 ft 327 kts 160°
2026-05-05 04:07 27.16838 -81.55843 13294 ft 325 kts 160°
2026-05-05 04:07 27.14763 -81.54849 12998 ft 323 kts 160°
2026-05-05 04:07 27.12701 -81.53859 12706 ft 321 kts 160°
2026-05-05 04:07 27.10655 -81.52874 12403 ft 319 kts 160°
2026-05-05 04:08 27.08622 -81.51895 12109 ft 317 kts 160°
2026-05-05 04:08 27.06603 -81.50926 11819 ft 315 kts 160°
2026-05-05 04:08 27.04593 -81.49964 11527 ft 313 kts 160°
2026-05-05 04:08 27.02603 -81.49011 11254 ft 309 kts 160°
2026-05-05 04:09 27.00637 -81.48068 10960 ft 305 kts 160°
2026-05-05 04:09 26.98711 -81.47125 10799 ft 301 kts 159°
2026-05-05 04:09 26.96826 -81.46183 10633 ft 300 kts 159°
2026-05-05 04:09 26.94924 -81.45222 10461 ft 299 kts 159°
2026-05-05 04:10 26.93029 -81.44262 10302 ft 298 kts 159°
2026-05-05 04:10 26.91144 -81.43309 10118 ft 297 kts 159°
2026-05-05 04:10 26.89260 -81.42364 9966 ft 296 kts 159°
2026-05-05 04:10 26.87381 -81.41426 9784 ft 295 kts 159°
2026-05-05 04:11 26.85513 -81.40495 9622 ft 294 kts 159°
2026-05-05 04:11 26.83626 -81.39621 9434 ft 291 kts 166°
2026-05-05 04:11 26.81657 -81.39220 9290 ft 286 kts 180°
2026-05-05 04:11 26.79674 -81.39259 9126 ft 285 kts 185°
2026-05-05 04:12 26.77698 -81.39330 8965 ft 284 kts 184°
2026-05-05 04:12 26.75720 -81.39395 8807 ft 284 kts 184°
2026-05-05 04:12 26.73759 -81.39457 8635 ft 283 kts 184°
2026-05-05 04:12 26.71784 -81.39518 8478 ft 282 kts 184°
2026-05-05 04:13 26.69823 -81.39580 8320 ft 282 kts 184°
2026-05-05 04:13 26.67904 -81.39912 8156 ft 278 kts 200°
2026-05-05 04:13 26.66196 -81.40874 8000 ft 275 kts 218°
2026-05-05 04:13 26.64835 -81.42366 7846 ft 274 kts 234°
2026-05-05 04:14 26.63719 -81.44090 7689 ft 274 kts 234°
2026-05-05 04:14 26.62601 -81.45813 7544 ft 274 kts 234°
2026-05-05 04:14 26.61483 -81.47531 7379 ft 273 kts 234°
2026-05-05 04:14 26.60368 -81.49246 7222 ft 272 kts 234°
2026-05-05 04:15 26.59260 -81.50958 7070 ft 272 kts 234°
2026-05-05 04:15 26.58154 -81.52668 6917 ft 272 kts 234°
2026-05-05 04:15 26.57045 -81.54374 6765 ft 271 kts 234°
2026-05-05 04:15 26.55937 -81.56074 6600 ft 270 kts 234°
2026-05-05 04:16 26.54831 -81.57767 6468 ft 270 kts 234°
2026-05-05 04:16 26.53726 -81.59460 6314 ft 270 kts 234°
2026-05-05 04:16 26.52621 -81.61156 6162 ft 270 kts 234°
2026-05-05 04:16 26.51516 -81.62849 5998 ft 269 kts 234°
2026-05-05 04:17 26.50429 -81.64546 5835 ft 269 kts 234°
2026-05-05 04:17 26.49351 -81.66249 5684 ft 269 kts 234°
2026-05-05 04:17 26.48267 -81.67913 5545 ft 268 kts 233°
2026-05-05 04:17 26.47147 -81.69576 5372 ft 268 kts 232°
2026-05-05 04:18 26.46011 -81.71218 5048 ft 267 kts 231°
2026-05-05 04:18 26.44869 -81.72842 4726 ft 265 kts 231°
2026-05-05 04:18 26.43731 -81.74443 4398 ft 263 kts 230°
2026-05-05 04:18 26.42595 -81.76033 4084 ft 261 kts 228°
2026-05-05 04:19 26.41466 -81.77611 3755 ft 259 kts 227°
2026-05-05 04:19 26.40348 -81.79177 3432 ft 257 kts 229°
2026-05-05 04:19 26.39239 -81.80728 3114 ft 255 kts 229°
2026-05-05 04:19 26.38153 -81.82247 2996 ft 244 kts 228°
2026-05-05 04:20 26.37230 -81.83733 3005 ft 228 kts 240°
2026-05-05 04:20 26.36564 -81.85293 2986 ft 215 kts 246°
2026-05-05 04:20 26.36475 -81.86898 2988 ft 208 kts 286°
2026-05-05 04:20 26.37221 -81.88238 3003 ft 204 kts 317°
2026-05-05 04:21 26.38292 -81.89285 3003 ft 205 kts 323°
2026-05-05 04:21 26.39408 -81.90285 2998 ft 208 kts 323°
2026-05-05 04:21 26.40567 -81.91244 2993 ft 207 kts 333°
2026-05-05 04:21 26.41904 -81.91727 2986 ft 199 kts
2026-05-05 04:22 26.43183 -81.91325 2995 ft 189 kts 42°
2026-05-05 04:22 26.44019 -81.90240 3040 ft 185 kts 58°
2026-05-05 04:22 26.44746 -81.89123 3004 ft 172 kts 58°
2026-05-05 04:22 26.45437 -81.88062 2997 ft 167 kts 58°
2026-05-05 04:23 26.46126 -81.87003 2731 ft 170 kts 58°
2026-05-05 04:23 26.46813 -81.85952 2410 ft 164 kts 58°
2026-05-05 04:23 26.47468 -81.84949 2150 ft 157 kts 59°
2026-05-05 04:23 26.48104 -81.83974 1858 ft 153 kts 59°
2026-05-05 04:24 26.48704 -81.83058 1554 ft 142 kts 59°
2026-05-05 04:24 26.49274 -81.82182 1256 ft 138 kts 57°
2026-05-05 04:24 26.49835 -81.81322 1033 ft 137 kts 56°
2026-05-05 04:25 26.50948 -81.79624 637 ft 136 kts 58°